Simultaneous Nadir Overpasses (SNOs) Predictions

Prediction of SNOs between GOES-16 and TERRA Satellite Orbit:

Table of predicted SNOs for the next 14.0 days since TLE Epoch: 9/9/2023
Index Date Time (GOES-16) GOES-16 Lat,Lon TERRA Lat,Lon Distance(km) Time Diff (sec)
1 09/09/2023 14:59:38 -0.04, -75.23 -0.26, -74.12 124.93 80
2 09/10/2023 03:17:17 0.05, -75.21 -0.78, -79.06 438.11 80
3 09/12/2023 03:03:32 0.04, -75.22 0.10, -75.10 14.53 80
4 09/14/2023 02:47:06 0.04, -75.24 0.93, -71.13 467.42 80
5 09/14/2023 15:04:35 -0.04, -75.27 0.13, -76.03 86.60 80
6 09/16/2023 14:48:09 -0.04, -75.30 -0.73, -72.06 367.64 80
7 09/17/2023 03:11:08 0.04, -75.28 -0.30, -77.00 194.71 80
8 09/19/2023 02:52:01 0.04, -75.32 0.51, -73.03 260.08 80
9 09/19/2023 15:12:11 -0.04, -75.34 0.47, -77.93 293.61 80
10 09/21/2023 14:58:24 -0.04, -75.38 -0.36, -73.96 161.46 80
11 09/22/2023 03:18:42 0.04, -75.37 -0.73, -78.89 400.81 80
